Location: La Comballaz
(46.3780°N, 7.0817°E)
Time: 06:56:30
(UTC+00:00)

ISS - Visible Passes

Search period start: 04 March 2021 00:00
Search period end: 14 March 2021 00:00
Orbit: 417 x 422 km, 51.6° (Epoch: 04 March)

Date Brightness Start Highest point End Pass type
(mag) Time Alt. Az. Time Alt. Az. Time Alt. Az.
04 Mar -0.5 03:09:46 14° NE 03:09:46 14° NE 03:10:20 10° ENE visible
04 Mar -2.5 04:42:44 20° NW 04:44:27 33° N 04:47:33 10° ENE visible
05 Mar -2.3 03:57:03 31° N 03:57:03 31° N 03:59:54 10° ENE visible
05 Mar -3.3 05:30:43 10° WNW 05:34:03 60° NNE 05:37:23 10° ESE visible
06 Mar -0.7 03:11:24 16° NE 03:11:24 16° NE 03:12:18 10° ENE visible
06 Mar -2.9 04:44:21 19° NW 04:46:30 46° NNE 04:49:46 10° E visible
07 Mar -2.7 03:58:44 37° N 03:58:55 38° NNE 04:02:05 10° E visible
08 Mar -1.0 03:13:10 19° ENE 03:13:10 19° ENE 03:14:24 10° ENE visible
08 Mar -3.8 04:46:08 19° WNW 04:48:24 84° NNE 04:51:46 10° ESE visible
09 Mar -3.4 04:00:38 58° N 04:00:52 60° NNE 04:04:12 10° ESE visible
10 Mar -1.2 03:15:14 21° E 03:15:14 21° E 03:16:34 10° E visible
10 Mar -3.3 04:48:13 20° W 04:50:07 42° SW 04:53:18 10° SE visible
11 Mar -3.7 04:02:55 62° S 04:02:55 62° S 04:06:00 10° SE visible
12 Mar -1.1 03:17:47 16° ESE 03:17:47 16° ESE 03:18:32 10° ESE visible
12 Mar -2.1 04:50:47 16° WSW 04:51:36 17° SW 04:53:55 10° S visible
13 Mar -1.8 04:05:50 18° S 04:05:50 18° S 04:07:08 10° SSE visible
